Terug naar catalogus

THOR ABLESTAR DEB

ActiefLEO
NORAD 416·DEBRIS·🇺🇸 United States

Gelanceerd Jun 29, 1961 vanaf Cape Canaveral Space Force Station

Loading…

Volgende Passages (komende 24 uur)

TLE

VersSource: Space-Track

Epoch: Sep 14, 2026, 20:20 UTC

1 00416U 61015ER  26257.84761462  .00000112  00000-0  99021-4 0  9993
2 00416  66.4989  45.3324 0069756 113.9395 246.9020 14.14811552344534

Volg THOR ABLESTAR DEB in realtime met AllMySat

Download on the App Store